SL-8 DEB, 21405

Orbit data source: Space-Track

SL-8 DEB, 21405 is space debris in LEO originally from a launch on Tue, 12 Feb 1991 UTC launched from the Plesetsk Missile And Space Complex (PKMTR). Debris objects in space refer to the collection of defunct objects orbiting the Earth. Examples of debris include non-operational satellites, rocket bodies, and fragments generated from explosions, collisions, or faulty payload assembly.

Loading next visibility...
Identifier
21405, 1991-009BU
Orbit
LEO
Country
Flag of CISCIS
Related business
Manufacturer
Unknown
Mission
Spacecraft
Bus & Motor
Unknown
Mass
Unknown
Launch date (UTC)
1991-02-12 (35 years ago)
Launch vehicle
Unknown
Launch site
Plesetsk Missile And Space Complex (PKMTR)
Object type
Payload
Rocket body
Debris
Shape & HBR
Unknown shape, 0.3 m
Radar Cross Section
Medium (>0.1 m² and <1 m²)

Expand to show TLE details & history
Last TLE update: 13 hours ago

TLE from 13 hours ago
0 SL-8 DEB
1 21405U 91009BU  26171.36154161 -.00000008  00000-0  53382-4 0  9999
2 21405  73.9568 139.3117 0226441  59.1610  91.0345 12.18865489568337
Epoch: 2026-06-20T08:40Z
TLE epoch observation values (Epoch: 2026-06-20T08:40:37.195Z)
Latitude
26.10669°
Longitude
-87.48204°
Altitude
1,607.482 km
Speed
7.065 km/s
True Right ascension
20h 45m 00s
True Declination
25° 59' 08"
Sunlit
Object was in daylight at epoch
Visualization orbit readout
Latitude
Unknown
Longitude
Unknown
Altitude
Unknown
Speed
Unknown
Apparent Right ascension
Unknown
Apparent Declination
Unknown
Sunlit
N/A
Visualization observer readout
Local Sidereal Time
08:46:28
Azimuth
Unknown
Elevation
Unknown
Doppler factor
Unknown
Orbital elements
Apogee altitude
1,775.915 km
Perigee altitude
1,414.809 km
Semi-major axis
7,973.499 km
Eccentricity
0.02264
Inclination
73.9568°
RAAN
139.3117°
Arg. of periapsis
59.161°
True anomaly
93.62669°
Mean anomaly
91.0345°
Eccentric anomaly
92.33084°
Mean motion
3.04838 °/min
Orbital period
118.1 mins
BSTAR
0.000053382
Loading maneuver chart data...
Computing Atmospheric mass density...
Loading historical data...
Loading historical data...
Loading historical data...
Loading historical data...
Loading historical data...
Loading historical data...
Loading historical data...

Documentation

Showing up to 5 results
|